| time (UTC) | temp C | wind direction | speed KPH | gust KPH | rain 1hr cm | rain 24hr cm | rain mn cm | humidity % | barometer mb |
| 20260507173351 | 16 | 130 | 0.0 | 6.4 | 0.00 | 0.99 | 0.05 | 78 | 1010.9 |
| 20260507171348 | 17 | 124 | 0.0 | 8.0 | 0.00 | 0.99 | 0.05 | 77 | 1010.5 |
| 20260507164336 | 17 | 99 | 0.0 | 12.9 | 0.00 | 0.99 | 0.05 | 77 | 1010.5 |
| 20260507163344 | 17 | 86 | 1.6 | 9.7 | 0.00 | 0.99 | 0.05 | 76 | 1010.5 |
| 20260507162332 | 17 | 115 | 1.6 | 11.3 | 0.00 | 0.99 | 0.05 | 75 | 1010.5 |
| 20260507161340 | 17 | 95 | 0.0 | 9.7 | 0.00 | 0.99 | 0.05 | 75 | 1010.5 |
| 20260507160350 | 17 | 82 | 1.6 | 11.3 | 0.00 | 0.99 | 0.05 | 75 | 1010.5 |
| 20260507155341 | 17 | 94 | 0.0 | 8.0 | 0.00 | 0.99 | 0.05 | 75 | 1010.9 |
| 20260507154329 | 17 | 140 | 3.2 | 14.5 | 0.00 | 0.99 | 0.05 | 74 | 1010.9 |
| 20260507153340 | 17 | 124 | 0.0 | 3.2 | 0.00 | 0.99 | 0.05 | 72 | 1010.9 |
| 20260507152349 | 17 | 117 | 0.0 | 0.0 | 0.00 | 0.99 | 0.05 | 73 | 1010.8 |
| 20260507151336 | 17 | 136 | 1.6 | 12.9 | 0.00 | 0.99 | 0.05 | 72 | 1010.9 |
| 20260507145337 | 17 | 117 | 4.8 | 16.1 | 0.00 | 0.99 | 0.05 | 72 | 1010.8 |
| 20260507143351 | 17 | 153 | 1.6 | 16.1 | 0.00 | 0.99 | 0.05 | 71 | 1010.7 |
| 20260507141348 | 18 | 141 | 0.0 | 14.5 | 0.00 | 0.99 | 0.05 | 71 | 1011.1 |
| 20260507140336 | 18 | 114 | 0.0 | 11.3 | 0.00 | 0.99 | 0.05 | 70 | 1011.1 |
| 20260507135346 | 18 | 131 | 4.8 | 19.3 | 0.00 | 0.99 | 0.05 | 70 | 1011.4 |
| 20260507134332 | 18 | 142 | 0.0 | 9.7 | 0.00 | 0.99 | 0.05 | 70 | 1011.6 |
| 20260507133341 | 17 | 161 | 8.0 | 17.7 | 0.00 | 0.99 | 0.05 | 71 | 1011.6 |
| 20260507132349 | 17 | 123 | 3.2 | 16.1 | 0.00 | 0.99 | 0.05 | 69 | 1011.8 |
| 20260507131335 | 17 | 119 | 1.6 | 14.5 | 0.00 | 0.99 | 0.05 | 69 | 1012.0 |
| 20260507130343 | 17 | 88 | 4.8 | 14.5 | 0.00 | 0.99 | 0.05 | 68 | 1012.0 |
| 20260507125333 | 17 | 153 | 4.8 | 17.7 | 0.00 | 0.99 | 0.05 | 70 | 1012.1 |
| 20260507124342 | 17 | 150 | 9.7 | 16.1 | 0.00 | 0.99 | 0.05 | 70 | 1012.3 |
| 20260507123350 | 17 | 119 | 3.2 | 16.1 | 0.00 | 0.99 | 0.05 | 71 | 1012.3 |
| 20260507121347 | 17 | 136 | 4.8 | 17.7 | 0.00 | 0.99 | 0.05 | 72 | 1012.4 |
| 20260507115342 | 17 | 121 | 8.0 | 17.7 | 0.00 | 0.99 | 0.05 | 74 | 1012.3 |
| 20260507114350 | 17 | 135 | 0.0 | 16.1 | 0.00 | 0.99 | 0.05 | 75 | 1012.2 |
| 20260507113338 | 17 | 130 | 4.8 | 16.1 | 0.00 | 0.99 | 0.05 | 73 | 1012.2 |
| 20260507111335 | 17 | 102 | 0.0 | 17.7 | 0.00 | 0.99 | 0.05 | 74 | 1012.5 |
| 20260507110343 | 17 | 136 | 4.8 | 16.1 | 0.00 | 0.99 | 0.05 | 75 | 1012.5 |
| 20260507105331 | 17 | 141 | 0.0 | 14.5 | 0.00 | 0.99 | 0.05 | 74 | 1012.6 |
| 20260507104339 | 17 | 154 | 4.8 | 16.1 | 0.00 | 0.99 | 0.05 | 76 | 1012.8 |
| 20260507102332 | 17 | 138 | 1.6 | 12.9 | 0.00 | 0.99 | 0.05 | 76 | 1012.8 |
| 20260507101341 | 17 | 134 | 3.2 | 11.3 | 0.00 | 0.99 | 0.05 | 74 | 1012.9 |
| 20260507095340 | 17 | 111 | 3.2 | 12.9 | 0.00 | 0.99 | 0.05 | 75 | 1012.9 |
| 20260507094348 | 17 | 134 | 4.8 | 12.9 | 0.00 | 0.99 | 0.05 | 75 | 1013.0 |
| 20260507093331 | 17 | 103 | 0.0 | 9.7 | 0.00 | 0.99 | 0.05 | 74 | 1013.0 |
| 20260507092339 | 17 | 97 | 0.0 | 1.6 | 0.00 | 0.99 | 0.05 | 75 | 1012.9 |
| 20260507090335 | 17 | 147 | 0.0 | 9.7 | 0.00 | 0.99 | 0.05 | 75 | 1012.6 |
| 20260507083349 | 17 | 135 | 3.2 | 9.7 | 0.00 | 0.99 | 0.05 | 75 | 1012.6 |
| 20260507082337 | 17 | 105 | 3.2 | 11.3 | 0.00 | 0.99 | 0.05 | 76 | 1012.7 |
| 20260507080336 | 17 | 134 | 0.0 | 9.7 | 0.00 | 0.99 | 0.05 | 76 | 1012.6 |
| 20260507075348 | 17 | 146 | 4.8 | 9.7 | 0.00 | 0.99 | 0.05 | 76 | 1012.7 |
| 20260507074335 | 17 | 92 | 3.2 | 9.7 | 0.00 | 0.99 | 0.05 | 76 | 1012.8 |
| 20260507073347 | 16 | 136 | 6.4 | 12.9 | 0.00 | 0.99 | 0.05 | 77 | 1012.8 |
| 20260507072332 | 17 | 88 | 0.0 | 8.0 | 0.00 | 0.99 | 0.05 | 78 | 1012.7 |
| 20260507071341 | 16 | 130 | 3.2 | 11.3 | 0.00 | 0.99 | 0.05 | 77 | 1012.5 |
| 20260507070331 | 17 | 107 | 0.0 | 1.6 | 0.00 | 0.99 | 0.05 | 78 | 1012.5 |
| 20260507065339 | 16 | 74 | 0.0 | 0.0 | 0.00 | 0.99 | 0.05 | 80 | 1012.4 |
| 20260507063339 | 16 | 77 | 1.6 | 12.9 | 0.00 | 0.99 | 0.05 | 83 | 1012.3 |
| 20260507062347 | 15 | 49 | 0.0 | 0.0 | 0.00 | 0.99 | 0.05 | 85 | 1012.1 |
| 20260507061334 | 15 | 71 | 0.0 | 0.0 | 0.00 | 0.99 | 0.05 | 87 | 1012.0 |
| 20260507060346 | 14 | 78 | 0.0 | 0.0 | 0.00 | 0.99 | 0.05 | 88 | 1012.0 |
| 20260507055333 | 13 | 47 | 0.0 | 0.0 | 0.00 | 0.99 | 0.05 | 88 | 1011.9 |
| 20260507054342 | 13 | 53 | 0.0 | 0.0 | 0.00 | 0.99 | 0.05 | 89 | 1012.0 |
| 20260507051347 | 12 | 313 | 0.0 | 0.0 | 0.00 | 0.99 | 0.05 | 90 | 1011.5 |
| 20260507050339 | 12 | 314 | 0.0 | 0.0 | 0.00 | 0.99 | 0.05 | 90 | 1011.5 |
| 20260507045347 | 12 | 313 | 0.0 | 0.0 | 0.00 | 0.99 | 0.05 | 90 | 1011.5 |
| 20260507044334 | 12 | 313 | 0.0 | 0.0 | 0.00 | 0.99 | 0.05 | 90 | 1011.4 |
| 20260507043342 | 12 | 313 | 0.0 | 0.0 | 0.00 | 0.99 | 0.05 | 89 | 1011.4 |
| 20260507042349 | 12 | 313 | 0.0 | 0.0 | 0.00 | 0.99 | 0.05 | 90 | 1011.4 |
| 20260507041337 | 12 | 313 | 0.0 | 0.0 | 0.00 | 0.99 | 0.05 | 90 | 1011.4 |
| 20260507035340 | 12 | 313 | 0.0 | 0.0 | 0.00 | 0.99 | 0.05 | 90 | 1011.4 |
| 20260507034349 | 12 | 313 | 0.0 | 0.0 | 0.10 | 0.99 | 0.05 | 90 | 1011.5 |
| 20260507032347 | 12 | 313 | 0.0 | 0.0 | 0.10 | 0.99 | 0.05 | 89 | 1011.6 |
| 20260507031332 | 12 | 313 | 0.0 | 0.0 | 0.10 | 0.99 | 0.05 | 89 | 1011.5 |
| 20260507030344 | 12 | 314 | 0.0 | 0.0 | 0.10 | 0.99 | 0.05 | 89 | 1011.5 |
| 20260507025350 | 12 | 314 | 0.0 | 0.0 | 0.10 | 0.99 | 0.05 | 89 | 1011.5 |
| 20260507024338 | 12 | 315 | 0.0 | 0.0 | 0.00 | 0.89 | 0.03 | 89 | 1011.5 |
| 20260507022335 | 13 | 321 | 0.0 | 0.0 | 0.00 | 0.89 | 0.03 | 90 | 1011.5 |
| 20260507021343 | 12 | 321 | 0.0 | 0.0 | 0.00 | 0.89 | 0.03 | 89 | 1011.6 |
| 20260507020333 | 13 | 321 | 0.0 | 0.0 | 0.00 | 0.89 | 0.03 | 89 | 1011.6 |
| 20260507015340 | 13 | 321 | 0.0 | 0.0 | 0.00 | 0.89 | 0.03 | 89 | 1011.8 |
| 20260507014350 | 12 | 321 | 0.0 | 0.0 | 0.00 | 0.89 | 0.03 | 90 | 1011.7 |
| 20260507013334 | 12 | 321 | 0.0 | 0.0 | 0.00 | 0.89 | 0.03 | 89 | 1011.7 |
| 20260507012342 | 13 | 321 | 0.0 | 0.0 | 0.00 | 0.89 | 0.03 | 88 | 1011.7 |
| 20260507011332 | 13 | 323 | 0.0 | 0.0 | 0.00 | 0.89 | 0.03 | 88 | 1011.9 |
| 20260507010339 | 13 | 315 | 0.0 | 0.0 | 0.00 | 0.89 | 0.03 | 88 | 1011.9 |
| 20260507005349 | 13 | 317 | 0.0 | 0.0 | 0.00 | 0.89 | 0.03 | 88 | 1012.0 |
| 20260507004334 | 13 | 319 | 0.0 | 0.0 | 0.00 | 0.89 | 0.03 | 88 | 1012.0 |
| 20260507003343 | 13 | 322 | 0.0 | 0.0 | 0.00 | 0.89 | 0.03 | 87 | 1012.0 |
| 20260507002340 | 14 | 360 | 0.0 | 0.0 | 0.00 | 0.89 | 0.03 | 87 | 1012.0 |
| 20260507000343 | 14 | 360 | 0.0 | 0.0 | 0.00 | 0.89 | 0.03 | 88 | 1012.1 |
| 20260506235350 | 14 | 360 | 0.0 | 0.0 | 0.00 | 0.89 | 0.03 | 88 | 1012.2 |
| 20260506234336 | 14 | 360 | 0.0 | 0.0 | 0.00 | 0.89 | 0.03 | 88 | 1012.3 |
| 20260506233343 | 15 | 350 | 0.0 | 0.0 | 0.00 | 0.89 | 0.03 | 88 | 1012.3 |
| 20260506232331 | 15 | 340 | 0.0 | 0.0 | 0.00 | 0.89 | 0.03 | 88 | 1012.3 |
| 20260506231341 | 15 | 355 | 0.0 | 0.0 | 0.10 | 0.89 | 0.03 | 88 | 1012.3 |
| 20260506230350 | 15 | 355 | 0.0 | 0.0 | 0.10 | 0.89 | 0.03 | 89 | 1012.3 |
| 20260506225339 | 15 | 348 | 0.0 | 4.8 | 0.10 | 0.89 | 0.03 | 89 | 1012.1 |
| 20260506224346 | 15 | 355 | 4.8 | 9.7 | 0.10 | 0.89 | 0.03 | 88 | 1012.3 |
| 20260506223338 | 15 | 30 | 3.2 | 12.9 | 0.10 | 0.89 | 0.03 | 88 | 1012.3 |
| 20260506222347 | 15 | 348 | 4.8 | 11.3 | 0.10 | 0.89 | 0.03 | 88 | 1012.2 |
| 20260506221332 | 15 | 51 | 1.6 | 12.9 | 0.00 | 0.79 | 0.00 | 88 | 1012.2 |
| 20260506220341 | 15 | 49 | 0.0 | 0.0 | 0.00 | 0.79 | 0.00 | 89 | 1012.2 |
| 20260506215348 | 15 | 17 | 0.0 | 0.0 | 0.00 | 0.79 | 0.15 | 88 | 1012.0 |
| 20260506213348 | 16 | 159 | 0.0 | 0.0 | 0.00 | 0.79 | 0.15 | 89 | 1012.0 |
| 20260506212336 | 16 | 168 | 0.0 | 0.0 | 0.00 | 0.79 | 0.15 | 89 | 1012.0 |
| 20260506211343 | 16 | 157 | 0.0 | 0.0 | 0.20 | 0.79 | 0.15 | 89 | 1011.9 |
| 20260506210333 | 16 | 157 | 0.0 | 0.0 | 0.20 | 0.79 | 0.15 | 90 | 1011.9 |
| 20260506205336 | 16 | 157 | 0.0 | 0.0 | 0.71 | 0.79 | 0.15 | 90 | 1011.9 |
| 20260506204344 | 16 | 157 | 0.0 | 0.0 | 0.79 | 0.79 | 0.15 | 89 | 1011.6 |
| 20260506201339 | 16 | 159 | 1.6 | 11.3 | 0.61 | 0.61 | 0.13 | 88 | 1011.3 |
| 20260506200349 | 16 | 115 | 3.2 | 12.9 | 0.61 | 0.61 | 0.13 | 87 | 1011.3 |
| 20260506195350 | 16 | 129 | 4.8 | 12.9 | 0.10 | 0.10 | 0.03 | 85 | 1010.9 |
| 20260506193331 | 17 | 134 | 4.8 | 9.7 | 0.00 | 0.00 | 0.00 | 85 | 1010.9 |
| 20260506192339 | 16 | 132 | 0.0 | 8.0 | 0.00 | 0.00 | 0.00 | 84 | 1010.6 |
| 20260506191347 | 16 | 136 | 0.0 | 8.0 | 0.00 | 0.00 | 0.00 | 84 | 1010.5 |
| 20260506190332 | 17 | 126 | 4.8 | 9.7 | 0.00 | 0.00 | 0.00 | 83 | 1010.5 |
| 20260506185341 | 17 | 143 | 6.4 | 11.3 | 0.00 | 0.00 | 0.00 | 83 | 1010.4 |
| 20260506184331 | 17 | 136 | 4.8 | 14.5 | 0.00 | 0.00 | 0.00 | 83 | 1010.2 |
| 20260506183342 | 17 | 153 | 4.8 | 14.5 | 0.00 | 0.00 | 0.00 | 82 | 1010.2 |
| 20260506182351 | 17 | 176 | 8.0 | 14.5 | 0.00 | 0.00 | 0.00 | 82 | 1009.9 |
| 20260506181338 | 17 | 138 | 8.0 | 16.1 | 0.00 | 0.00 | 0.00 | 82 | 1009.9 |
| 20260506180347 | 17 | 164 | 8.0 | 11.3 | 0.00 | 0.00 | 0.00 | 82 | 1009.9 |
| 20260506175351 | 17 | 140 | 8.0 | 14.5 | 0.00 | 0.00 | 0.00 | 82 | 1009.9 |